Weather History for Yuma MCAS, AZ

Change the Weather History Date:

Friday, April 11, 2014

  Actual Average Record
Temperature  
Mean Temperature 84 °F 72 °F  
Max Temperature 98 °F 85 °F 101 °F (1936)
Min Temperature 69 °F 58 °F 42 °F (1927)
Degree Days  
Heating Degree Days 0 1  
Month to date heating degree days 5 11  
Since 1 July heating degree days 370 684  
Cooling Degree Days 19 7  
Month to date cooling degree days 86 69  
Year to date cooling degree days 385 222  
Growing Degree Days 34 (Base 50)    
Moisture  
Dew Point 26 °F    
Average Humidity 19    
Maximum Humidity 35    
Minimum Humidity 3    
Precipitation  
Precipitation 0.00 in 0.00 in 0.31 in (1884)
Month to date precipitation 0.00 0.08  
Year to date precipitation 0.07 1.17  
Sea Level Pressure  
Sea Level Pressure 29.79 in    
Wind  
Wind Speed 5 mph (South)    
Max Wind Speed 16 mph    
Max Gust Speed 19 mph    
Visibility 10 miles    
Events      
T = Trace of Precipitation, MM = Missing Value Source: NWS Daily Summary

Daily Weather History Graph

Daily Weather History Graph

Search for Another Location

Airport:

Trip Planner

Search our weather history database for the weather conditions in past years. The results will help you decide how hot, cold, wet, or windy it might be!

Date:

Astronomy

Apr. 11, 2014 Rise Set
Actual Time 6:13 AM MST 7:05 PM MST
Civil Twilight 5:48 AM MST 7:30 PM MST
Nautical Twilight 5:18 AM MST 8:00 PM MST
Astronomical Twilight 4:48 AM MST 8:31 PM MST
Moon 4:00 PM MST (4/11) 3:59 AM MST (4/11)
Length of Visible Light 13h 42m
Length of Day
12h 51m
Waxing Gibbous, 87% of the Moon is Illuminated
Apr 11
Waxing Gibbous
Apr 15
Full
Apr 22
Last Quarter
Apr 28
New
May 6
First Quarter

Hourly Weather History & Observations

Time (MST) Temp. Dew Point Humidity Pressure Visibility Wind Dir Wind Speed Gust Speed Precip Events Conditions
12:57 AM 72.0 °F 26.1 °F 18% 29.83 in 10.0 mi South 5.8 mph - N/A   Clear
1:57 AM 73.0 °F 21.0 °F 14% 29.82 in 10.0 mi Calm Calm - N/A   Clear
2:57 AM 72.0 °F 23.0 °F 16% 29.81 in 10.0 mi Calm Calm - N/A   Clear
3:57 AM 73.0 °F 24.1 °F 16% 29.81 in 10.0 mi ENE 3.5 mph - N/A   Clear
4:57 AM 73.0 °F 28.0 °F 19% 29.82 in 10.0 mi Calm Calm - N/A   Clear
5:57 AM 72.0 °F 26.1 °F 18% 29.82 in 10.0 mi Variable 4.6 mph - N/A   Mostly Cloudy
6:57 AM 72.0 °F 26.1 °F 18% 29.84 in 10.0 mi Calm Calm - N/A   Mostly Cloudy
7:57 AM 75.0 °F 24.1 °F 15% 29.86 in 10.0 mi ENE 8.1 mph - N/A   Scattered Clouds
8:57 AM 79.0 °F 28.9 °F 16% 29.86 in 10.0 mi SSE 6.9 mph - N/A   Scattered Clouds
9:57 AM 84.9 °F 30.9 °F 14% 29.86 in 10.0 mi South 6.9 mph - N/A   Scattered Clouds
10:57 AM 90.0 °F 30.0 °F 12% 29.87 in 10.0 mi Calm Calm - N/A   Partly Cloudy
11:57 AM 91.9 °F 25.0 °F 9% 29.83 in 10.0 mi Calm Calm - N/A   Mostly Cloudy
12:57 PM 95.0 °F 17.1 °F 6% 29.81 in 10.0 mi WSW 6.9 mph - N/A   Mostly Cloudy
1:57 PM 97.0 °F 10.9 °F 4% 29.77 in 10.0 mi South 10.4 mph - N/A   Mostly Cloudy
2:57 PM 97.0 °F 10.0 °F 4% 29.75 in 10.0 mi West 9.2 mph - N/A   Mostly Cloudy
3:57 PM 96.1 °F 15.1 °F 5% 29.72 in 10.0 mi WSW 4.6 mph - N/A   Mostly Cloudy
4:57 PM 97.0 °F 3.9 °F 4% 29.70 in 10.0 mi South 8.1 mph - N/A   Mostly Cloudy
5:57 PM 96.1 °F 3.9 °F 4% 29.68 in 10.0 mi South 5.8 mph - N/A   Mostly Cloudy
6:57 PM 91.9 °F 28.0 °F 10% 29.69 in 10.0 mi South 11.5 mph - N/A   Mostly Cloudy
7:57 PM 82.9 °F 46.0 °F 27% 29.72 in 10.0 mi SSE 9.2 mph - N/A   Mostly Cloudy
8:57 PM 81.0 °F 50.0 °F 34% 29.75 in 10.0 mi SW 4.6 mph - N/A   Mostly Cloudy
9:57 PM 80.1 °F 45.0 °F 29% 29.75 in 10.0 mi South 8.1 mph - N/A   Mostly Cloudy
10:57 PM 75.9 °F 42.1 °F 30% 29.75 in 10.0 mi South 4.6 mph - N/A   Clear
11:57 PM 75.0 °F 37.9 °F 26% 29.74 in 10.0 mi Calm Calm - N/A   Clear